GW6354 Weather Reports


time (UTC)temp
C
wind
direction
speed
KPH
gust
KPH
rain 1hr
cm
rain 24hr
cm
rain mn
cm
humidity
%
barometer
mb
20260508005516 10 60 4.8 6.4 0.00 0.05 0.00 95 1016.0
20260508004525 10 150 1.6 3.2 0.00 0.05 0.00 94 1016.2
20260508003525 11 156 4.8 4.8 0.00 0.05 0.00 91 1016.0
20260508002518 11 127 6.4 8.0 0.00 0.05 0.00 91 1016.0
20260508001522 11 128 6.4 6.4 0.00 0.05 0.00 92 1016.0
20260508000517 11 82 4.8 4.8 0.00 0.05 0.00 92 1015.9
20260507235520 11 98 4.8 4.8 0.00 0.05 0.00 92 1016.1
20260507234524 11 103 4.8 4.8 0.00 0.05 0.00 93 1016.2
20260507233518 11 75 3.2 4.8 0.00 0.05 0.00 91 1016.3
20260507232523 11 150 6.4 6.4 0.00 0.05 0.00 91 1016.3
20260507231517 11 192 6.4 6.4 0.00 0.05 0.00 91 1016.2
20260507230543 12 170 4.8 4.8 0.00 0.05 0.00 88 1016.2
20260507225515 12 103 4.8 4.8 0.00 0.05 0.00 88 1016.2
20260507224519 12 153 4.8 6.4 0.00 0.05 0.00 89 1016.3
20260507223523 12 185 4.8 4.8 0.00 0.05 0.00 88 1016.3
20260507222517 12 140 3.2 3.2 0.00 0.05 0.00 87 1016.4
20260507221521 12 87 6.4 8.0 0.00 0.05 0.00 86 1016.3
20260507220516 12 212 0.0 0.0 0.00 0.05 0.00 89 1016.4
20260507215539 12 151 1.6 3.2 0.00 0.05 0.05 88 1016.3
20260507214523 12 74 3.2 4.8 0.00 0.05 0.05 88 1016.2
20260507213517 12 126 6.4 8.0 0.00 0.05 0.05 88 1016.1
20260507212522 12 117 4.8 6.4 0.00 0.05 0.05 88 1016.0
20260507211535 12 82 3.2 4.8 0.00 0.05 0.05 90 1016.0
20260507210520 12 84 3.2 3.2 0.00 0.05 0.05 92 1016.0
20260507205543 12 105 3.2 4.8 0.00 0.05 0.05 91 1016.0
20260507204516 12 173 3.2 4.8 0.00 0.05 0.05 90 1015.9
20260507203520 12 135 3.2 4.8 0.00 0.05 0.05 91 1015.8
20260507202524 12 195 4.8 6.4 0.00 0.05 0.05 91 1015.7
20260507201518 12 121 4.8 4.8 0.00 0.05 0.05 93 1015.5
20260507200523 14 137 4.8 6.4 0.00 0.05 0.05 90 1015.3
20260507195536 14 120 1.6 1.6 0.00 0.05 0.05 88 1015.2
20260507194521 14 320 3.2 3.2 0.00 0.05 0.05 90 1015.2
20260507193523 13 339 8.0 9.7 0.00 0.05 0.05 91 1015.0
20260507192517 13 47 3.2 3.2 0.00 0.05 0.05 91 1014.8
20260507191521 13 63 3.2 3.2 0.00 0.05 0.05 85 1014.6
20260507190515 15 232 8.0 9.7 0.00 0.05 0.05 81 1014.5
20260507185519 15 242 9.7 9.7 0.00 0.05 0.05 79 1014.4
20260507184523 15 246 6.4 6.4 0.00 0.05 0.05 79 1014.2
20260507183536 16 240 6.4 6.4 0.00 0.05 0.05 78 1014.1
20260507182520 16 268 8.0 8.0 0.00 0.05 0.05 78 1014.1
20260507181524 16 224 1.6 1.6 0.00 0.05 0.05 73 1013.9
20260507180538 16 233 6.4 6.4 0.00 0.05 0.05 71 1013.9
20260507175522 17 222 4.8 6.4 0.00 0.05 0.05 69 1013.8
20260507174516 17 218 6.4 8.0 0.00 0.05 0.05 68 1013.8
20260507173520 17 236 6.4 8.0 0.00 0.05 0.05 68 1013.8
20260507172523 18 227 4.8 4.8 0.00 0.05 0.05 66 1013.8
20260507171518 17 242 3.2 3.2 0.00 0.05 0.05 70 1013.8
20260507170522 17 223 3.2 3.2 0.00 0.05 0.05 69 1013.8
20260507165601 18 155 1.6 3.2 0.00 0.05 0.05 65 1013.8
20260507164520 18 307 0.0 1.6 0.00 0.30 0.05 66 1013.7
20260507163523 17 233 4.8 6.4 0.00 0.30 0.05 67 1013.7
20260507162517 17 232 8.0 9.7 0.00 0.30 0.05 67 1013.8
20260507161542 17 219 4.8 6.4 0.00 0.30 0.05 67 1013.7
20260507160535 17 187 9.7 11.3 0.00 0.30 0.05 68 1013.7
20260507155519 18 0.0 0.0 0.00 0.30 0.05 64 1013.8
20260507154523 18 0.0 0.0 0.00 0.30 0.05 61 1013.8
20260507153517 18 197 9.7 12.9 0.00 0.30 0.05 55 1013.7
20260507152541 18 227 14.5 16.1 0.00 0.30 0.05 49 1013.5
20260507151514 19 242 14.5 17.7 0.00 0.30 0.05 48 1013.2
20260507150518 20 233 16.1 19.3 0.00 0.30 0.05 51 1013.0
20260507145542 19 215 14.5 20.9 0.00 0.30 0.05 55 1012.7
20260507144516 19 213 19.3 25.7 0.00 0.30 0.05 60 1012.6
20260507143600 19 198 16.1 20.9 0.00 0.30 0.05 64 1012.5
20260507142524 20 186 17.7 22.5 0.00 0.30 0.05 63 1012.5
20260507141518 20 212 16.1 24.1 0.00 0.30 0.05 57 1012.4
20260507140522 20 218 19.3 22.5 0.00 0.30 0.05 62 1012.5
20260507135516 20 219 17.7 19.3 0.00 0.30 0.05 54 1012.5
20260507134520 20 205 12.9 17.7 0.00 0.30 0.05 54 1012.5
20260507133524 20 217 19.3 24.1 0.00 0.30 0.05 59 1012.6
20260507132518 20 0.0 0.0 0.00 0.30 0.05 55 1012.7
20260507131541 20 196 12.9 19.3 0.00 0.30 0.05 62 1012.6
20260507130516 20 189 17.7 22.5 0.00 0.30 0.05 62 1012.7
20260507125520 20 203 14.5 20.9 0.00 0.30 0.05 69 1012.8
20260507124523 20 198 17.7 20.9 0.00 0.30 0.05 65 1012.8
20260507123517 20 213 17.7 22.5 0.00 0.30 0.05 64 1012.8
20260507122521 20 206 17.7 24.1 0.00 0.30 0.05 63 1012.8
20260507121535 20 190 17.7 24.1 0.00 0.30 0.05 66 1012.8
20260507120519 20 207 16.1 22.5 0.00 0.30 0.05 69 1012.8
20260507115535 19 201 22.5 24.1 0.00 0.30 0.05 64 1013.0
20260507114518 19 195 19.3 24.1 0.00 0.30 0.05 65 1013.0
20260507113521 19 203 19.3 22.5 0.00 0.33 0.05 65 1013.0
20260507112523 19 198 16.1 20.9 0.00 0.33 0.05 65 1013.1
20260507111515 19 186 19.3 24.1 0.00 0.33 0.05 65 1013.2
20260507110518 19 197 17.7 20.9 0.00 0.33 0.05 62 1013.1
20260507105520 18 193 17.7 22.5 0.00 0.33 0.05 64 1013.3
20260507104523 18 194 19.3 27.4 0.00 0.33 0.05 65 1013.3
20260507103514 19 201 19.3 25.7 0.00 0.33 0.05 62 1013.4
20260507102537 19 221 19.3 24.1 0.00 0.33 0.05 64 1013.4
20260507101519 19 198 22.5 29.0 0.00 0.33 0.05 58 1013.5
20260507100522 19 185 17.7 22.5 0.03 0.33 0.05 64 1013.3
20260507095525 19 182 16.1 20.9 0.03 0.33 0.05 65 1013.4
20260507094517 18 193 20.9 27.4 0.03 0.33 0.05 65 1013.3
20260507093519 19 188 19.3 25.7 0.03 0.33 0.05 65 1013.3
20260507092548 18 208 24.1 29.0 0.03 0.36 0.05 64 1013.2
20260507091524 18 0.0 0.0 0.03 0.36 0.03 65 1013.3
20260507090516 18 0.0 0.0 0.00 0.33 0.03 69 1013.2
20260507085539 18 0.0 0.0 0.00 0.33 0.03 68 1013.2
20260507084522 18 180 19.3 25.7 0.00 0.33 0.03 69 1013.2
20260507083524 18 193 17.7 25.7 0.00 0.33 0.03 66 1013.2
20260507082536 18 202 22.5 29.0 0.00 0.36 0.03 67 1013.1
20260507081519 18 173 20.9 27.4 0.00 0.36 0.03 68 1013.0
20260507080601 18 190 16.1 22.5 0.00 0.41 0.03 71 1013.0
20260507075544 18 172 14.5 19.3 0.00 0.46 0.03 70 1013.0
20260507074516 18 183 14.5 17.7 0.00 0.46 0.03 73 1013.0
20260507073518 18 182 12.9 19.3 0.00 0.48 0.03 71 1012.8
20260507072541 18 165 8.0 11.3 0.00 0.51 0.03 75 1012.8
20260507071544 17 165 12.9 17.7 0.00 0.56 0.03 76 1012.8
20260507070536 17 0.0 0.0 0.00 0.58 0.03 78 1012.8
20260507065618 17 174 11.3 17.7 0.00 0.61 0.03 77 1012.6
20260507064520 18 0.0 0.0 0.00 0.61 0.03 76 1012.6
20260507063523 17 0.0 0.0 0.00 0.66 0.03 77 1012.6
20260507062516 17 161 9.7 11.3 0.00 0.69 0.03 79 1012.4
20260507061518 17 91 4.8 8.0 0.00 0.71 0.03 80 1012.4
20260507060521 16 88 6.4 6.4 0.00 0.71 0.03 84 1012.5
20260507055523 16 148 8.0 11.3 0.00 0.71 0.03 85 1012.4
20260507054515 16 90 6.4 8.0 0.00 0.74 0.03 83 1012.3
20260507053518 16 101 8.0 9.7 0.00 0.76 0.03 86 1012.1
20260507052520 15 102 8.0 9.7 0.00 0.97 0.03 88 1012.1
20260507051543 15 139 4.8 4.8 0.00 0.97 0.03 89 1012.1
20260507050515 15 96 4.8 4.8 0.00 0.97 0.03 90 1011.9
20260507045538 14 97 6.4 6.4 0.00 0.97 0.03 92 1011.8
20260507044520 14 168 3.2 4.8 0.03 0.97 0.03 92 1011.7
20260507043522 15 178 3.2 3.2 0.03 0.97 0.03 91 1011.7
20260507042516 15 123 3.2 4.8 0.03 0.97 0.03 92 1011.6
20260507041540 15 0.0 0.0 0.03 0.97 0.03 90 1011.6
20260507040520 15 203 1.6 1.6 0.03 0.97 0.03 88 1011.4
20260507035522 15 70 4.8 4.8 0.00 0.97 0.00 86 1011.4
20260507034514 15 71 6.4 6.4 0.00 0.97 0.00 87 1011.3
20260507033517 15 0.0 0.0 0.00 0.97 0.00 86 1011.3
20260507032520 15 84 6.4 8.0 0.00 0.97 0.00 86 1011.4
20260507031522 16 81 6.4 6.4 0.00 0.97 0.00 85 1011.4
20260507030515 16 65 6.4 8.0 0.00 0.97 0.00 86 1011.4
20260507025517 15 69 6.4 6.4 0.00 0.97 0.00 87 1011.4
20260507024540 16 56 8.0 9.7 0.00 0.97 0.00 85 1011.3
20260507023542 15 61 11.3 14.5 0.00 0.97 0.00 86 1011.2
20260507022524 15 61 11.3 12.9 0.00 0.97 0.00 87 1011.4
20260507021517 15 63 4.8 8.0 0.00 0.97 0.00 88 1011.4
20260507020519 15 115 3.2 4.8 0.00 0.97 0.00 86 1011.4
20260507015542 16 71 4.8 6.4 0.00 0.97 0.00 86 1011.4
20260507014524 15 71 3.2 6.4 0.00 0.97 0.00 87 1011.4
20260507013517 16 28 4.8 4.8 0.00 0.97 0.00 86 1011.4
20260507012519 16 104 1.6 4.8 0.00 0.97 0.00 86 1011.4
20260507011522 15 17 3.2 4.8 0.00 0.97 0.00 86 1011.3
20260507010524 15 200 1.6 3.2 0.00 0.97 0.00 85 1011.4